Weather History for K9L2 - November, 2012

Change the Weather History Date:

Monday, November 12, 2012

  Actual Average (KEDW) Record (KEDW)
Temperature  
Mean Temperature 42 °F -  
Max Temperature 60 °F 64 °F - (-1)
Min Temperature 23 °F 35 °F - (-1)
Degree Days  
Heating Degree Days 24    
Moisture  
Dew Point 3 °F    
Average Humidity 24    
Maximum Humidity 41    
Minimum Humidity 11    
Precipitation  
Precipitation 0.00 in - - ()
Sea Level Pressure  
Sea Level Pressure 30.36 in    
Wind  
Wind Speed 3 mph (North)    
Max Wind Speed 8 mph    
Max Gust Speed -    
Visibility 10 miles    
Events      
Averages and records for this station are not official NWS values.
T = Trace of Precipitation, MM = Missing Value Source: NWS Daily Summary

Daily Weather History Graph

Daily Weather History Graph

Search for Another Location

Airport or City:

Trip Planner

Search our weather history database for the weather conditions in past years. The results will help you decide how hot, cold, wet, or windy it might be!

Date:

Astronomy

Nov. 12, 2012 Rise Set
Actual Time 6:23 AM PST 4:47 PM PST
Civil Twilight 5:56 AM PST 5:14 PM PST
Nautical Twilight 5:26 AM PST 5:44 PM PST
Astronomical Twilight 4:56 AM PST 6:14 PM PST
Moon 4:56 AM PST (11/12) 3:55 PM PST (11/12)
Length of Visible Light 11h 17m
Length of Day
10h 23m
Waning Crescent, 2% of the Moon is Illuminated
Nov 12
Waning Crescent
Nov 13
New
Nov 20
First Quarter
Nov 28
Full
Dec 6
Last Quarter

Hourly Weather History & Observations

Time (PST) Temp. Windchill Dew Point Humidity Pressure Visibility Wind Dir Wind Speed Gust Speed Precip Events Conditions
12:55 AM 28.9 °F 23.9 °F 3.0 °F 33% 30.41 in 10.0 mi NNW 4.6 mph - N/A   Clear
1:55 AM 30.9 °F 27.5 °F 6.1 °F 35% 30.40 in 10.0 mi NNW 3.5 mph - N/A   Clear
2:55 AM 28.0 °F 20.8 °F 6.1 °F 39% 30.41 in 10.0 mi North 6.9 mph - N/A   Clear
3:55 AM 28.0 °F 21.7 °F 5.0 °F 38% 30.40 in 10.0 mi North 5.8 mph - N/A   Clear
4:55 AM 25.0 °F 20.7 °F 3.9 °F 41% 30.41 in 10.0 mi North 3.5 mph - N/A   Clear
5:55 AM 23.0 °F - 1.9 °F 40% 30.43 in 10.0 mi Calm Calm - N/A   Clear
6:55 AM 26.1 °F - 1.9 °F 35% 30.44 in 10.0 mi Calm Calm - N/A   Clear
7:55 AM 34.0 °F - 5.0 °F 30% 30.45 in 10.0 mi Calm Calm - N/A   Clear
8:55 AM 37.9 °F - 6.1 °F 27% 30.44 in 10.0 mi Calm Calm - N/A   Clear
9:55 AM 48.0 °F - 6.1 °F 18% 30.42 in 10.0 mi Calm Calm - N/A   Clear
10:55 AM 53.1 °F - 7.0 °F 16% 30.38 in 10.0 mi Calm Calm - N/A   Clear
11:55 AM 55.0 °F - 7.0 °F 15% 30.34 in 10.0 mi East 5.8 mph - N/A   Clear
12:55 PM 57.9 °F - 5.0 °F 12% 30.30 in 10.0 mi ENE 4.6 mph - N/A   Clear
1:55 PM 60.1 °F - 3.9 °F 11% 30.27 in 10.0 mi Calm Calm - N/A   Clear
2:55 PM 59.0 °F - 3.9 °F 11% 30.27 in 10.0 mi South 3.5 mph - N/A   Clear
3:55 PM 57.9 °F - 3.0 °F 11% 30.25 in 10.0 mi SSE 3.5 mph - N/A   Clear
4:55 PM 51.1 °F - 1.9 °F 13% 30.27 in 10.0 mi SSW 4.6 mph - N/A   Clear
5:55 PM 45.0 °F 40.6 °F -0.0 °F 15% 30.30 in 10.0 mi NW 8.1 mph - N/A   Clear
6:55 PM 39.9 °F 36.7 °F -0.9 °F 18% 30.31 in 10.0 mi NW 4.6 mph - N/A   Clear
7:55 PM 36.0 °F 33.3 °F -0.9 °F 21% 30.32 in 10.0 mi WNW 3.5 mph - N/A   Clear
9:55 PM 34.0 °F 29.8 °F -2.0 °F 22% 30.32 in 10.0 mi North 4.6 mph - N/A   Clear
10:55 PM 30.0 °F - -2.9 °F 24% 30.33 in 10.0 mi Calm Calm - N/A   Clear
11:55 PM 32.0 °F 28.7 °F -4.0 °F 21% 30.31 in 10.0 mi East 3.5 mph - N/A   Clear